Torna al catalogo

FENGYUN 1C DEB

AttivoPO
NORAD 30082·DEBRIS·🇨🇳 China

Lanciato May 10, 1999 da Taiyuan Satellite Launch Center

Loading…

Prossimi Passaggi (prossime 24 ore)

TLE

AggiornatoSource: Space-Track

Epoca: Sep 14, 2026, 09:16 UTC

1 30082U 99025QK  26257.38660117  .00035165  00000-0  10198-2 0  9993
2 30082  98.8361 239.1482 0043170 314.6034  45.1685 15.34517866 54942

Traccia FENGYUN 1C DEB in tempo reale con AllMySat

Download on the App Store